Location: Brompton
(51.4000°N, 0.5333°E)
Time: 08:09:13
(UTC+00:00)

SL-27 R/B - Pass Details

Date: 11 May 2021
Orbit: 418 x 467 km, 74.7° (Epoch: 13 June)

Event Time Altitude Azimuth Distance (km) Brightness Sun altitude
Rises 22:47:57 0° 346° (NNW) 2,384 7.8 -19.0°
Reaches altitude 10° 22:50:20 10° 2° (N) 1,517 6.2 -19.1°
Maximum altitude 22:52:59 22° 55° (NE) 993 4.3 -19.2°
Enters shadow 22:53:59 19° 82° (E) 1,084 4.2 -19.2°
